Regional Weather Roundup
Issued by NWS Newport/Morehead, NC

Current Version | Previous Version | Graphics & Text | Print | Product List | Glossary Off
Versions: 1 2 3 4 5 6 7 8 9 10 11 12 13 14 15 16 17 18 19 20 21 22 23 24 25 26 27 28 29 30 31 32 33 34 35 36 37 38 39 40 41 42 43 44 45 46 47 48 49 50

000
ASUS42 KMHX 301525
RWRMHX
WEATHER ROUNDUP FOR EASTERN NORTH CAROLINA
NATIONAL WEATHER SERVICE NEWPORT/MOREHEAD CITY NC
1100 AM EDT THU MAR 30 2017

NOTE: "FAIR" INDICATES FEW OR NO CLOUDS BELOW 12,000 FEET
WITH NO SIGNIFICANT WEATHER AND/OR OBSTRUCTIONS TO VISIBILITY

NCZ015>017-031-032-045>047-102-103-301600-
NORTH COAST

CITY           SKY/WX    TMP DP  RH WIND       PRES   REMARKS
EDENTON        PTSUNNY   58  46  65 E8        30.22S
ELIZABETH CITY SUNNY     57  45  64 E13       30.22F
KITTY HAWK     NOT AVBL
MANTEO         CLOUDY    55  45  69 E13G21    30.23R

$$

NCZ045>047-081-094-103-104-301600-
CENTRAL COAST

CITY           SKY/WX    TMP DP  RH WIND       PRES   REMARKS
FRISCO         MOSUNNY   61  48  62 NE14G23   30.20R

$$

NCZ095-097-098-100-101-301600-
SOUTHERN COAST

CITY           SKY/WX    TMP DP  RH WIND       PRES   REMARKS
BEAUFORT       SUNNY     64  50  60 NE13G20   30.17R
CEDAR ISLAND   NOT AVBL
JACKSONVILLE   PTSUNNY   64  49  57 NE7       30.16R
PINEY ISLAND   PTSUNNY  N/A N/A N/A NE17G25   30.19R
WILMINGTON     SUNNY     66  49  54 E13G21    30.15R


$$

NCZ011>013-027>030-043-044-078>080-089-090>093-098-301600-
COASTAL PLAIN

CITY           SKY/WX    TMP DP  RH WIND       PRES   REMARKS
AHOSKIE          N/A     52  44  73 E7        30.23S HAZE
CLINTON        MOSUNNY   60  47  63 E8        30.16S
ELIZABETHTOWN  SUNNY     63  51  64 E5        30.14S
GOLDSBORO      CLOUDY    58  45  61 E12       30.16F
GREENVILLE     CLOUDY    59  43  55 E8        30.21S
HAVELOCK       MOSUNNY   61  43  51 E20G26    30.19R
KENANSVILLE    CLOUDY    61  43  51 NE7       30.17F
KINSTON        CLOUDY    57  45  62 NE8       30.20R
NEW BERN       PTSUNNY   61  45  55 E8        30.19S
RICHLANDS      CLOUDY    62  46  55 NE7       30.18
ROCKY MOUNT    CLOUDY    56  45  66 E7        30.20S
WASHINGTON     MOSUNNY   56  45  67 E9        30.21R
WHITEVILLE     CLOUDY    67  52  59 NE12      30.12F

$$

AMZ130-135-150-152-154-156-158-170-250-252-270-ANZ085-086-088-633-658-670-301600-
MARINE OBSERVATIONS

STATION/POSITION TIME  TEMP    WIND        PRES    WAVE   SWELL
                       AIR SEA DIR/SP/G            HT/PER HT/PER
                 (UTC) (F)     (DEG/KT/KT) (MB)    (FT/S) (FT/S)
CHESAPEAKE LIGHT NOT AVBL
64 E VA BEACH    1450   51 51   70/ 14/ 17 1022.9    5/10   3/10
DUCK             1500   50 50   70/ 10/ 12 1022.9
2 E DUCK         1500      50                N/A     4/ 8   2/11
OREGON INLET     1500   52 54   20/ 10/ 13 1023.2
13E OREGON INLT  1448      49                N/A     5/ 9   5/ 9
HATTERAS CG      1500   56 60   40/  9/ 12 1022.2
DIAMOND BUOY     1450   63 77   40/ 16/ 19 1021.7    7/ 9   5/ 9
CAPE LOOKOUT     1500   61      30/ 17/ 21 1021.3
BEAUFORT LAB     1500   61 61   40/ 11/ 15 1020.6
30 SE NEW RVR IN 1508   63      50/ 16/ 19 1020.7
30 SE NEW RVR IN 1513      65                N/A     5/10   2/11
27 SE WRIGHTSVLE 1508   67 74   80/ 16/ 21 1019.7
5 SE WRIGHTSVLE  1508   59 58   60/ 12/ 21 1020.6
225 S CAPE HAT   1450   68 72   60/ 10/ 14 1019.8    6/10   5/10
41 SE CHARLESTON 1450   72 70   90/ 16/ 19 1017.4    5/10   3/10

$$




USA.gov is the U.S. government's official web portal to all federal, state and local government web resources and services.